Weather History for Lake Charles Regional, LA

Change the Weather History Date:

Sunday, June 9, 2013

  Actual Average Record
Temperature  
Mean Temperature 81 °F 80 °F  
Max Temperature 90 °F 89 °F 104 °F (1911)
Min Temperature 72 °F 72 °F 60 °F (1916)
Degree Days  
Heating Degree Days 0 0  
Month to date heating degree days 0 0  
Since 1 June heating degree days 0 0  
Since 1 July heating degree days 1267 1490  
Cooling Degree Days 16 15  
Month to date cooling degree days 145 132  
Year to date cooling degree days 630 670  
Since 1 June cooling degree days 145 132  
Growing Degree Days 31 (Base 50)    
Moisture  
Dew Point 71 °F    
Average Humidity 78    
Maximum Humidity 93    
Minimum Humidity 63    
Precipitation  
Precipitation 0.61 in 0.20 in 2.66 in (1921)
Month to date precipitation 2.08 1.79  
Year to date precipitation 31.60 22.67  
Snow  
Snow 0.00 in 0.00 in 0.00 in ()
Month to date snowfall 0.0 0.0  
Since 1 June snowfall 0.0 0.0  
Since 1 July snowfall 0.0 0.1  
Snow Depth 0.00 in    
Sea Level Pressure  
Sea Level Pressure 29.93 in    
Wind  
Wind Speed 3 mph (WNW)    
Max Wind Speed 21 mph    
Max Gust Speed 28 mph    
Visibility 9 miles    
Events Rain , Thunderstorm    
T = Trace of Precipitation, MM = Missing Value Source: NWS Daily Summary

Daily Weather History Graph

Daily Weather History Graph

Search for Another Location

Airport:

Trip Planner

Search our weather history database for the weather conditions in past years. The results will help you decide how hot, cold, wet, or windy it might be!

Date:

Astronomy

Jun. 09, 2013 Rise Set
Actual Time 6:10 AM CDT 8:13 PM CDT
Civil Twilight 5:43 AM CDT 8:41 PM CDT
Nautical Twilight 5:10 AM CDT 9:14 PM CDT
Astronomical Twilight 4:34 AM CDT 9:49 PM CDT
Moon 7:03 AM CDT (6/9) 9:05 PM CDT (6/9)
Length of Visible Light 14h 57m
Length of Day
14h 02m
New Moon, 1% of the Moon is Illuminated
Jun 9
New Moon
Jun 16
First Quarter
Jun 23
Full
Jun 29
Last Quarter
Jul 8
New

Hourly Weather History & Observations

Time (CDT) Temp. Heat Index Dew Point Humidity Pressure Visibility Wind Dir Wind Speed Gust Speed Precip Events Conditions
12:53 AM 73.9 °F - 70.0 °F 87% 29.95 in 10.0 mi ESE 4.6 mph - N/A   Clear
1:53 AM 73.0 °F - 69.1 °F 87% 29.95 in 10.0 mi ENE 3.5 mph - N/A   Clear
2:53 AM 73.0 °F - 70.0 °F 90% 29.94 in 10.0 mi NE 3.5 mph - N/A   Clear
3:53 AM 72.0 °F - 69.1 °F 91% 29.94 in 9.0 mi ENE 3.5 mph - N/A   Clear
4:53 AM 72.0 °F - 70.0 °F 93% 29.94 in 9.0 mi East 3.5 mph - N/A   Clear
5:53 AM 72.0 °F - 70.0 °F 93% 29.93 in 10.0 mi Calm Calm - N/A   Clear
6:53 AM 72.0 °F - 70.0 °F 93% 29.93 in 10.0 mi Calm Calm - N/A   Clear
7:53 AM 75.9 °F - 71.1 °F 85% 29.94 in 10.0 mi East 3.5 mph - N/A   Clear
8:53 AM 80.1 °F 84.2 °F 73.0 °F 79% 29.96 in 10.0 mi East 4.6 mph - N/A   Clear
9:53 AM 84.0 °F 91.9 °F 75.0 °F 74% 29.96 in 10.0 mi Variable 3.5 mph - N/A   Partly Cloudy
10:10 AM 84.2 °F 92.3 °F 75.2 °F 74% 29.93 in 10.0 mi SE 3.5 mph - N/A   Mostly Cloudy
10:20 AM 86.0 °F 93.4 °F 73.4 °F 66% 29.94 in 10.0 mi Calm Calm - N/A   Mostly Cloudy
10:53 AM 86.0 °F 93.8 °F 73.9 °F 67% 29.95 in 10.0 mi Calm Calm - N/A   Mostly Cloudy
11:00 AM 86.0 °F 93.4 °F 73.4 °F 66% 29.93 in 10.0 mi Variable 4.6 mph - N/A   Scattered Clouds
11:53 AM 88.0 °F 96.5 °F 73.9 °F 63% 29.95 in 10.0 mi Variable 4.6 mph - N/A   Clear
12:12 PM 87.8 °F 95.6 °F 73.4 °F 62% 29.92 in 10.0 mi SSW 6.9 mph - N/A Thunderstorm Scattered Clouds
12:39 PM 82.4 °F 89.5 °F 75.2 °F 79% 29.90 in 10.0 mi SSW 4.6 mph - 0.00 in Rain Light Rain
12:53 PM 84.9 °F 93.3 °F 75.0 °F 72% 29.93 in 10.0 mi SW 5.8 mph - 0.00 in Rain Light Rain
1:32 PM 89.6 °F 99.8 °F 75.2 °F 62% 29.89 in 10.0 mi WSW 10.4 mph - 0.00 in Thunderstorm Clear
1:53 PM 86.0 °F 93.0 °F 73.0 °F 65% 29.91 in 10.0 mi WSW 5.8 mph - 0.00 in Thunderstorm Thunderstorm
2:14 PM 84.2 °F 89.6 °F 71.6 °F 66% 29.90 in 10.0 mi West 6.9 mph - N/A   Clear
2:26 PM 82.4 °F 85.4 °F 68.0 °F 62% 29.90 in 10.0 mi WNW 8.1 mph - N/A Thunderstorm Clear
2:38 PM 80.6 °F 83.9 °F 69.8 °F 70% 29.90 in 10.0 mi West 3.5 mph - N/A Thunderstorm Clear
2:53 PM 75.9 °F - 70.0 °F 82% 29.93 in 3.0 mi West 11.5 mph 24.2 mph 0.01 in Rain , Thunderstorm Rain
2:58 PM 73.4 °F - 69.8 °F 88% 29.91 in 1.8 mi West 10.4 mph 24.2 mph 0.02 in Rain , Thunderstorm Heavy Rain
3:10 PM 73.4 °F - 71.6 °F 94% 29.92 in 1.0 mi West 11.5 mph 18.4 mph 0.20 in Rain , Thunderstorm Heavy Thunderstorms and Rain
3:34 PM 77.0 °F - 64.4 °F 65% 29.90 in 5.0 mi Variable 5.8 mph 25.3 mph 0.59 in Rain Heavy Rain
3:53 PM 78.1 °F - 69.1 °F 74% 29.92 in 10.0 mi West 8.1 mph - 0.60 in   Partly Cloudy
4:12 PM 77.0 °F - 71.6 °F 83% 29.91 in 10.0 mi WNW 6.9 mph - N/A Thunderstorm Partly Cloudy
4:53 PM 77.0 °F - 71.1 °F 82% 29.95 in 10.0 mi NW 4.6 mph - 0.00 in Thunderstorm Mostly Cloudy
5:09 PM 78.8 °F - 71.6 °F 78% 29.92 in 10.0 mi NNW 6.9 mph - N/A   Mostly Cloudy
5:53 PM 79.0 °F - 71.1 °F 77% 29.93 in 10.0 mi ENE 4.6 mph - N/A   Clear
6:53 PM 78.1 °F - 71.1 °F 79% 29.90 in 10.0 mi East 6.9 mph - N/A   Clear
7:53 PM 75.9 °F - 71.1 °F 85% 29.92 in 10.0 mi ESE 4.6 mph - N/A   Clear
8:53 PM 75.0 °F - 71.1 °F 87% 29.94 in 10.0 mi Calm Calm - N/A   Clear
9:53 PM 73.9 °F - 71.1 °F 91% 29.95 in 10.0 mi Calm Calm - N/A   Clear
10:53 PM 73.9 °F - 71.1 °F 91% 29.98 in 10.0 mi Calm Calm - N/A   Clear
11:53 PM 73.9 °F - 71.1 °F 91% 29.99 in 10.0 mi Calm Calm - N/A   Clear